Weather History for Ogallala, NE

Change the Weather History Date:

Monday, January 28, 2013

  Actual Average Record
Temperature  
Mean Temperature 34 °F -  
Max Temperature 41 °F 37 °F 63 °F (1954)
Min Temperature 26 °F 14 °F -15 °F (1963)
Degree Days  
Heating Degree Days 32    
Moisture  
Dew Point 32 °F    
Average Humidity 94    
Maximum Humidity 97    
Minimum Humidity 88    
Precipitation  
Precipitation 0.01 in - - ()
Sea Level Pressure  
Sea Level Pressure 29.68 in    
Wind  
Wind Speed 5 mph (NNE)    
Max Wind Speed 22 mph    
Max Gust Speed 25 mph    
Visibility 4 miles    
Events Fog , Snow    
Averages and records for this station are not official NWS values.
T = Trace of Precipitation, MM = Missing Value Source: NWS Daily Summary

Daily Weather History Graph

Daily Weather History Graph

Search for Another Location

Airport:

Trip Planner

Search our weather history database for the weather conditions in past years. The results will help you decide how hot, cold, wet, or windy it might be!

Date:

Astronomy

Jan. 28, 2013 Rise Set
Actual Time 7:01 AM MST 4:59 PM MST
Civil Twilight 6:31 AM MST 5:28 PM MST
Nautical Twilight 5:58 AM MST 6:01 PM MST
Astronomical Twilight 5:26 AM MST 6:34 PM MST
Moon 6:57 PM MST (1/28) 7:26 AM MST (1/28)
Length of Visible Light 10h 56m
Length of Day
9h 57m
Full, 97% of the Moon is Illuminated
Jan 28
Full
Feb 3
Last Quarter
Feb 10
New
Feb 17
First Quarter
Feb 25
Full

Hourly Weather History & Observations

Time (MST) Temp. Windchill Dew Point Humidity Pressure Visibility Wind Dir Wind Speed Gust Speed Precip Events Conditions
12:15 AM 36.3 °F 33.7 °F 34.2 °F 92% 29.76 in 10.0 mi SW 3.5 mph - N/A   Clear
12:35 AM 34.0 °F - 31.8 °F 92% 29.75 in 10.0 mi Calm Calm - N/A   Clear
12:55 AM 33.6 °F - 32.0 °F 94% 29.75 in 10.0 mi Calm Calm - N/A   Clear
1:15 AM 35.6 °F - 34.0 °F 94% 29.75 in 10.0 mi Calm Calm - N/A   Clear
1:35 AM 33.6 °F - 32.0 °F 94% 29.75 in 10.0 mi Calm Calm - N/A   Clear
1:55 AM 31.6 °F - 30.2 °F 94% 29.75 in 2.5 mi Calm Calm - N/A   Clear
2:15 AM 31.5 °F - 30.2 °F 95% 29.74 in 1.0 mi Calm Calm - N/A   Mist
2:35 AM 29.1 °F - 28.0 °F 96% 29.73 in 0.5 mi Calm Calm - N/A Fog Light Freezing Fog
2:55 AM 29.3 °F - 28.2 °F 96% 29.73 in 0.5 mi Calm Calm - N/A Fog Light Freezing Fog
3:15 AM 28.9 °F - 28.0 °F 96% 29.73 in 0.5 mi Calm Calm - N/A Fog Light Freezing Fog
3:35 AM 26.6 °F - 25.7 °F 96% 29.73 in 0.2 mi Calm Calm - N/A Fog Light Freezing Fog
3:55 AM 27.5 °F - 26.4 °F 96% 29.73 in 0.5 mi Calm Calm - N/A Fog Light Freezing Fog
4:15 AM 27.0 °F - 25.7 °F 95% 29.72 in 0.8 mi Calm Calm - N/A   Mist
4:55 AM 29.1 °F - 28.0 °F 96% 29.72 in 0.2 mi Calm Calm - N/A Fog Light Freezing Fog
5:15 AM 28.9 °F - 27.9 °F 96% 29.72 in 0.2 mi Calm Calm - N/A Fog Light Freezing Fog
5:35 AM 28.2 °F - 27.1 °F 96% 29.71 in 0.5 mi Calm Calm - N/A Fog Light Freezing Fog
5:55 AM 28.2 °F - 27.1 °F 96% 29.71 in 0.2 mi Calm Calm - N/A Fog Light Freezing Fog
6:15 AM 29.1 °F - 28.0 °F 96% 29.70 in 0.2 mi Calm Calm - N/A Fog Light Freezing Fog
6:35 AM 28.9 °F - 27.9 °F 96% 29.69 in 0.8 mi Calm Calm - N/A   Mostly Cloudy
6:55 AM 27.5 °F - 26.4 °F 96% 29.68 in 1.2 mi Calm Calm - N/A   Mist
7:15 AM 28.6 °F 23.5 °F 27.5 °F 96% 29.69 in 10.0 mi North 4.6 mph - N/A   Clear
7:35 AM 30.2 °F - 29.3 °F 96% 29.69 in 10.0 mi Calm Calm - N/A   Clear
8:15 AM 31.1 °F 25.4 °F 30.2 °F 96% 29.68 in 5.0 mi ESE 5.8 mph - N/A   Clear
8:35 AM 32.0 °F 28.7 °F 31.1 °F 96% 29.67 in 4.0 mi ENE 3.5 mph - N/A   Clear
8:55 AM 32.9 °F 27.5 °F 32.0 °F 96% 29.67 in 4.0 mi East 5.8 mph - N/A   Clear
9:15 AM 34.2 °F 31.2 °F 33.1 °F 96% 29.67 in 2.5 mi East 3.5 mph - N/A   Scattered Clouds
9:35 AM 34.3 °F 31.4 °F 33.3 °F 96% 29.67 in 0.5 mi ENE 3.5 mph - N/A Fog Fog
9:55 AM 35.1 °F 29.3 °F 34.0 °F 96% 29.67 in 0.2 mi ENE 6.9 mph - N/A Fog Fog
10:15 AM 36.7 °F 30.5 °F 35.6 °F 96% 29.67 in 2.0 mi East 8.1 mph - N/A   Overcast
10:35 AM 38.3 °F 33.9 °F 37.2 °F 96% 29.66 in 3.0 mi East 5.8 mph - N/A   Overcast
10:55 AM 39.9 °F 35.1 °F 38.7 °F 95% 29.65 in 5.0 mi East 6.9 mph - N/A   Overcast
11:15 AM 40.3 °F 35.5 °F 39.2 °F 96% 29.64 in 4.0 mi East 6.9 mph - N/A   Overcast
11:35 AM 40.3 °F 34.9 °F 39.2 °F 96% 29.63 in 2.0 mi East 8.1 mph - N/A   Overcast
11:55 AM 40.5 °F 35.8 °F 39.4 °F 96% 29.61 in 0.5 mi East 6.9 mph - N/A Fog Fog
12:15 PM 40.5 °F 35.8 °F 39.2 °F 95% 29.61 in 0.5 mi ENE 6.9 mph - N/A Fog Fog
12:35 PM 40.1 °F 36.1 °F 38.8 °F 95% 29.59 in 0.2 mi East 5.8 mph - N/A Fog Fog
12:55 PM 40.1 °F 36.1 °F 38.8 °F 95% 29.58 in 0.2 mi East 5.8 mph - N/A Fog Fog
1:15 PM 40.3 °F 36.3 °F 39.2 °F 96% 29.59 in 0.2 mi East 5.8 mph - N/A Fog Fog
1:35 PM 40.3 °F 36.3 °F 39.2 °F 96% 29.59 in 0.2 mi East 5.8 mph - N/A Fog Fog
1:55 PM 40.6 °F 36.7 °F 39.6 °F 96% 29.59 in 0.8 mi East 5.8 mph - N/A   Overcast
2:15 PM 41.0 °F 37.1 °F 39.7 °F 95% 29.59 in 1.2 mi East 5.8 mph - N/A   Overcast
2:35 PM 41.0 °F 37.1 °F 39.7 °F 95% 29.59 in 1.2 mi East 5.8 mph - N/A   Overcast
2:55 PM 37.2 °F 27.9 °F 36.0 °F 95% 29.62 in 1.8 mi North 16.1 mph - N/A   Overcast
3:15 PM 36.5 °F 26.3 °F 35.4 °F 96% 29.62 in 1.5 mi NNE 18.4 mph - N/A   Light Drizzle
3:35 PM 35.6 °F 24.5 °F 34.7 °F 97% 29.62 in 1.8 mi NNE 20.7 mph - N/A   Light Drizzle
3:55 PM 34.9 °F 23.6 °F 33.8 °F 96% 29.62 in 2.0 mi NNE 20.7 mph 24.2 mph N/A   Overcast
4:15 PM 34.3 °F 23.2 °F 33.1 °F 95% 29.63 in 3.0 mi North 19.6 mph 23.0 mph N/A   Overcast
4:35 PM 34.2 °F 23.6 °F 32.5 °F 94% 29.63 in 5.0 mi NNE 17.3 mph 24.2 mph N/A   Overcast
4:55 PM 34.0 °F 23.8 °F 32.0 °F 92% 29.63 in 10.0 mi NNE 16.1 mph - N/A   Overcast
5:15 PM 34.0 °F 24.2 °F 32.0 °F 92% 29.64 in 10.0 mi North 15.0 mph - N/A   Overcast
5:35 PM 34.0 °F 23.8 °F 32.0 °F 92% 29.64 in 10.0 mi North 16.1 mph - N/A   Overcast
5:55 PM 33.8 °F 24.8 °F 32.0 °F 93% 29.67 in 10.0 mi NNW 12.7 mph 19.6 mph N/A Snow Light Snow
6:15 PM 33.8 °F 23.9 °F 32.0 °F 93% 29.66 in 5.0 mi North 15.0 mph - N/A Snow Light Snow
6:35 PM 33.6 °F 23.3 °F 32.0 °F 94% 29.67 in 2.5 mi North 16.1 mph 20.7 mph N/A Snow Light Snow
6:55 PM 33.4 °F 23.5 °F 31.8 °F 94% 29.68 in 3.0 mi North 15.0 mph - N/A Snow Light Snow
7:15 PM 33.3 °F 24.1 °F 31.8 °F 94% 29.69 in 4.0 mi North 12.7 mph - N/A Snow Light Snow
7:35 PM 33.1 °F 23.0 °F 31.5 °F 94% 29.71 in 3.0 mi North 15.0 mph 20.7 mph 0.01 in Snow Light Snow
7:55 PM 32.9 °F 23.2 °F 31.5 °F 94% 29.72 in 2.5 mi North 13.8 mph - 0.01 in Snow Light Snow
8:15 PM 32.5 °F 20.8 °F 31.1 °F 94% 29.72 in 2.5 mi North 19.6 mph - N/A Snow Light Snow
8:35 PM 32.4 °F 21.3 °F 31.1 °F 95% 29.70 in 4.0 mi North 17.3 mph - N/A Snow Light Snow
8:55 PM 32.0 °F 19.5 °F 30.7 °F 95% 29.69 in 4.0 mi North 21.9 mph 25.3 mph N/A Snow Light Snow
9:15 PM 32.0 °F 20.8 °F 30.0 °F 92% 29.71 in 5.0 mi North 17.3 mph - N/A Snow Light Snow
9:35 PM 32.0 °F 22.1 °F 29.7 °F 91% 29.73 in 10.0 mi North 13.8 mph - N/A Snow Light Snow
9:55 PM 32.0 °F 24.2 °F 29.1 °F 89% 29.72 in 10.0 mi NNW 9.2 mph - N/A   Overcast
10:15 PM 31.6 °F 25.1 °F 28.4 °F 88% 29.73 in 10.0 mi North 6.9 mph - N/A   Mostly Cloudy
10:35 PM 30.2 °F - 27.3 °F 89% 29.73 in 10.0 mi Calm Calm - N/A   Scattered Clouds
10:55 PM 30.2 °F 23.4 °F 27.5 °F 90% 29.72 in 10.0 mi WNW 6.9 mph - N/A   Mostly Cloudy
11:15 PM 30.2 °F 21.9 °F 28.0 °F 92% 29.73 in 10.0 mi NW 9.2 mph - N/A   Overcast
11:35 PM 30.9 °F 24.3 °F 28.2 °F 90% 29.72 in 10.0 mi NNW 6.9 mph - N/A   Overcast
11:55 PM 30.9 °F 27.5 °F 28.2 °F 90% 29.74 in 10.0 mi West 3.5 mph - N/A   Overcast